Weather History for Hays, KS

Change the Weather History Date:

Sunday, December 9, 2012

  Actual Average Record
Temperature  
Mean Temperature 26 °F -  
Max Temperature 39 °F 43 °F 62 °F (2006)
Min Temperature 14 °F 20 °F -2 °F (2013)
Degree Days  
Heating Degree Days 38    
Moisture  
Dew Point 9 °F    
Average Humidity 48    
Maximum Humidity 75    
Minimum Humidity 34    
Precipitation  
Precipitation 0.00 in - - ()
Sea Level Pressure  
Sea Level Pressure 30.05 in    
Wind  
Wind Speed 16 mph (NNW)    
Max Wind Speed 32 mph    
Max Gust Speed 41 mph    
Visibility 10 miles    
Events      
Averages and records for this station are not official NWS values.
T = Trace of Precipitation, MM = Missing Value Source: NWS Daily Summary

Daily Weather History Graph

Daily Weather History Graph

Search for Another Location

Airport:

Trip Planner

Search our weather history database for the weather conditions in past years. The results will help you decide how hot, cold, wet, or windy it might be!

Date:

Astronomy

Dec. 09, 2012 Rise Set
Actual Time 7:44 AM CST 5:15 PM CST
Civil Twilight 7:14 AM CST 5:44 PM CST
Nautical Twilight 6:41 AM CST 6:18 PM CST
Astronomical Twilight 6:08 AM CST 6:50 PM CST
Moon 3:20 AM CST (12/9) 2:21 PM CST (12/9)
Length of Visible Light 10h 30m
Length of Day
9h 30m
Waning Crescent, 18% of the Moon is Illuminated
Dec 9
Waning Crescent
Dec 13
New
Dec 19
First Quarter
Dec 28
Full
Jan 4
Last Quarter

Hourly Weather History & Observations

Time (CST) Temp. Windchill Dew Point Humidity Pressure Visibility Wind Dir Wind Speed Gust Speed Precip Events Conditions
12:15 AM 32.0 °F 28.7 °F 24.8 °F 75% 29.86 in 10.0 mi WNW 3.5 mph - N/A   Overcast
12:35 AM 33.8 °F 27.7 °F 26.6 °F 75% 29.86 in 10.0 mi NW 6.9 mph - N/A   Overcast
12:55 AM 33.8 °F 27.7 °F 26.6 °F 75% 29.85 in 10.0 mi NW 6.9 mph - N/A   Mostly Cloudy
1:15 AM 33.8 °F 27.7 °F 26.6 °F 75% 29.85 in 10.0 mi WNW 6.9 mph - N/A   Overcast
1:35 AM 33.8 °F 25.8 °F 26.6 °F 75% 29.86 in 10.0 mi WNW 10.4 mph - N/A   Mostly Cloudy
1:55 AM 33.8 °F 26.4 °F 26.6 °F 75% 29.86 in 10.0 mi WNW 9.2 mph - N/A   Scattered Clouds
2:15 AM 33.8 °F 28.6 °F 26.6 °F 75% 29.85 in 10.0 mi WNW 5.8 mph - N/A   Mostly Cloudy
2:35 AM 32.0 °F 25.6 °F 24.8 °F 75% 29.86 in 10.0 mi WNW 6.9 mph - N/A   Overcast
2:55 AM 35.6 °F 28.0 °F 24.8 °F 65% 29.86 in 10.0 mi NW 10.4 mph - N/A   Overcast
3:15 AM 37.4 °F 27.8 °F 23.0 °F 56% 29.86 in 10.0 mi NNW 17.3 mph - N/A   Overcast
3:35 AM 39.2 °F 31.2 °F 21.2 °F 49% 29.87 in 10.0 mi NNW 13.8 mph - N/A   Overcast
3:55 AM 39.2 °F 30.2 °F 21.2 °F 49% 29.88 in 10.0 mi NNW 17.3 mph 23.0 mph N/A   Overcast
4:15 AM 39.2 °F 30.5 °F 21.2 °F 49% 29.89 in 10.0 mi NNW 16.1 mph - N/A   Overcast
4:35 AM 39.2 °F 29.8 °F 21.2 °F 49% 29.90 in 10.0 mi NNW 18.4 mph 25.3 mph N/A   Overcast
4:55 AM 37.4 °F 26.9 °F 21.2 °F 52% 29.90 in 10.0 mi NNW 20.7 mph 24.2 mph N/A   Overcast
5:15 AM 37.4 °F 27.5 °F 19.4 °F 48% 29.91 in 10.0 mi NNW 18.4 mph 25.3 mph N/A   Overcast
5:35 AM 37.4 °F 28.5 °F 19.4 °F 48% 29.92 in 10.0 mi NW 15.0 mph - N/A   Overcast
5:55 AM 37.4 °F 26.9 °F 19.4 °F 48% 29.93 in 10.0 mi NNW 20.7 mph 26.5 mph N/A   Overcast
6:15 AM 35.6 °F 24.2 °F 17.6 °F 48% 29.93 in 10.0 mi NNW 21.9 mph 28.8 mph N/A   Overcast
6:35 AM 35.6 °F 23.7 °F 17.6 °F 48% 29.94 in 10.0 mi NNW 24.2 mph 29.9 mph N/A   Overcast
6:55 AM 33.8 °F 21.9 °F 15.8 °F 48% 29.96 in 10.0 mi NNW 21.9 mph 31.1 mph N/A   Overcast
7:15 AM 32.0 °F 20.5 °F 12.2 °F 44% 29.97 in 10.0 mi NNW 18.4 mph 29.9 mph N/A   Overcast
7:35 AM 30.2 °F 16.5 °F 12.2 °F 47% 29.98 in 10.0 mi NNW 24.2 mph 29.9 mph N/A   Overcast
7:55 AM 30.2 °F 16.8 °F 10.4 °F 44% 30.01 in 7.0 mi NNW 23.0 mph 33.4 mph N/A   Overcast
8:15 AM 28.4 °F 13.5 °F 10.4 °F 47% 30.00 in 9.0 mi NNW 26.5 mph 33.4 mph N/A   Overcast
8:35 AM 28.4 °F 15.1 °F 8.6 °F 43% 30.01 in 10.0 mi NNW 20.7 mph 33.4 mph N/A   Overcast
8:55 AM 28.4 °F 12.7 °F 8.6 °F 43% 30.02 in 6.0 mi NNW 29.9 mph 35.7 mph N/A   Overcast
9:15 AM 26.6 °F 11.7 °F 6.8 °F 43% 30.03 in 7.0 mi NNW 24.2 mph 36.8 mph N/A   Overcast
9:35 AM 26.6 °F 11.4 °F 6.8 °F 43% 30.05 in 10.0 mi NNW 25.3 mph 32.2 mph N/A   Overcast
9:55 AM 24.8 °F 9.0 °F 6.8 °F 46% 30.05 in 4.0 mi NNW 25.3 mph 35.7 mph N/A   Overcast
10:35 AM 24.8 °F 8.1 °F 6.8 °F 46% 30.07 in 9.0 mi NNW 28.8 mph 34.5 mph N/A   Overcast
10:55 AM 24.8 °F 7.3 °F 3.2 °F 40% 30.08 in 5.0 mi NNW 32.2 mph 41.4 mph N/A   Overcast
11:15 AM 24.8 °F 7.9 °F 3.2 °F 40% 30.09 in 8.0 mi NNW 29.9 mph 35.7 mph N/A   Overcast
11:35 AM 24.8 °F 8.1 °F 3.2 °F 40% 30.08 in 10.0 mi NNW 28.8 mph 36.8 mph N/A   Overcast
11:55 AM 24.8 °F 10.0 °F 3.2 °F 40% 30.08 in 10.0 mi NW 21.9 mph 33.4 mph N/A   Overcast
12:15 PM 24.8 °F 10.3 °F 3.2 °F 40% 30.09 in 10.0 mi NNW 20.7 mph 28.8 mph N/A   Overcast
12:35 PM 24.8 °F 9.3 °F 3.2 °F 40% 30.09 in 10.0 mi NNW 24.2 mph 29.9 mph N/A   Overcast
12:55 PM 24.8 °F 9.0 °F 3.2 °F 40% 30.08 in 10.0 mi NNW 25.3 mph 28.8 mph N/A   Mostly Cloudy
1:15 PM 24.8 °F 10.7 °F 3.2 °F 40% 30.09 in 10.0 mi NNW 19.6 mph 25.3 mph N/A   Mostly Cloudy
1:35 PM 26.6 °F 12.7 °F 3.2 °F 37% 30.08 in 10.0 mi NNW 20.7 mph 26.5 mph N/A   Scattered Clouds
1:55 PM 26.6 °F 12.0 °F 3.2 °F 37% 30.08 in 10.0 mi NNW 23.0 mph 27.6 mph N/A   Clear
2:15 PM 26.6 °F 13.1 °F 3.2 °F 37% 30.09 in 10.0 mi NNW 19.6 mph 27.6 mph N/A   Clear
2:35 PM 26.6 °F 13.1 °F 1.4 °F 34% 30.09 in 10.0 mi NNW 19.6 mph - N/A   Partly Cloudy
2:55 PM 26.6 °F 13.4 °F 3.2 °F 37% 30.09 in 10.0 mi NW 18.4 mph 27.6 mph N/A   Clear
3:15 PM 26.6 °F 11.7 °F 3.2 °F 37% 30.10 in 10.0 mi NW 24.2 mph 28.8 mph N/A   Mostly Cloudy
3:35 PM 26.6 °F 12.4 °F 3.2 °F 37% 30.10 in 10.0 mi NNW 21.9 mph - N/A   Partly Cloudy
3:55 PM 26.6 °F 14.3 °F 3.2 °F 37% 30.10 in 10.0 mi NNW 16.1 mph - N/A   Clear
4:15 PM 26.6 °F 11.4 °F 3.2 °F 37% 30.11 in 10.0 mi NNW 25.3 mph - N/A   Clear
4:35 PM 26.6 °F 13.1 °F 3.2 °F 37% 30.12 in 10.0 mi NNW 19.6 mph - N/A   Clear
4:55 PM 26.6 °F 14.7 °F 3.2 °F 37% 30.12 in 10.0 mi NNW 15.0 mph - N/A   Clear
5:15 PM 24.8 °F 11.1 °F 3.2 °F 40% 30.13 in 10.0 mi NNW 18.4 mph 24.2 mph N/A   Clear
5:35 PM 24.8 °F 11.1 °F 3.2 °F 40% 30.13 in 10.0 mi NNW 18.4 mph 25.3 mph N/A   Clear
5:55 PM 24.8 °F 9.6 °F 3.2 °F 40% 30.14 in 10.0 mi NNW 23.0 mph 31.1 mph N/A   Clear
6:15 PM 23.0 °F 7.6 °F 3.2 °F 43% 30.15 in 10.0 mi NNW 21.9 mph 27.6 mph N/A   Clear
6:35 PM 21.2 °F 6.0 °F 3.2 °F 46% 30.16 in 10.0 mi NNW 19.6 mph 27.6 mph N/A   Clear
6:55 PM 21.2 °F 6.0 °F 3.2 °F 46% 30.17 in 10.0 mi NNW 19.6 mph 25.3 mph N/A   Clear
7:15 PM 19.4 °F 3.6 °F 3.2 °F 49% 30.18 in 10.0 mi NNW 19.6 mph - N/A   Clear
7:35 PM 21.2 °F 6.4 °F 3.2 °F 46% 30.18 in 10.0 mi NNW 18.4 mph 25.3 mph N/A   Mostly Cloudy
7:55 PM 21.2 °F 4.9 °F 3.2 °F 46% 30.20 in 10.0 mi NNW 23.0 mph 32.2 mph N/A   Overcast
8:15 PM 21.2 °F 4.2 °F 3.2 °F 46% 30.20 in 10.0 mi NNW 25.3 mph 29.9 mph N/A   Overcast
8:35 PM 19.4 °F 2.5 °F 3.2 °F 49% 30.22 in 10.0 mi NNW 23.0 mph 26.5 mph N/A   Overcast
8:55 PM 19.4 °F 4.1 °F 1.4 °F 46% 30.23 in 10.0 mi NNW 18.4 mph 29.9 mph N/A   Overcast
9:15 PM 19.4 °F 1.4 °F 1.4 °F 46% 30.22 in 10.0 mi NNW 26.5 mph 31.1 mph N/A   Scattered Clouds
9:35 PM 17.6 °F 0.5 °F 1.4 °F 49% 30.22 in 10.0 mi NNW 21.9 mph 29.9 mph N/A   Clear
9:55 PM 17.6 °F 0.9 °F -0.4 °F 45% 30.21 in 10.0 mi NNW 20.7 mph - N/A   Clear
10:15 PM 15.8 °F -0.2 °F -0.4 °F 49% 30.21 in 10.0 mi NNW 17.3 mph - N/A   Clear
10:35 PM 15.8 °F 0.9 °F -0.4 °F 49% 30.22 in 10.0 mi NNW 15.0 mph 21.9 mph N/A   Clear
10:55 PM 15.8 °F 0.3 °F -2.2 °F 45% 30.22 in 10.0 mi NNW 16.1 mph 23.0 mph N/A   Clear
11:15 PM 15.8 °F 1.4 °F -2.2 °F 45% 30.21 in 10.0 mi NNW 13.8 mph 24.2 mph N/A   Clear
11:35 PM 14.0 °F -2.5 °F -2.2 °F 49% 30.20 in 10.0 mi NNW 17.3 mph 21.9 mph N/A   Clear
11:55 PM 14.0 °F -3.9 °F -2.2 °F 49% 30.20 in 10.0 mi NW 20.7 mph 27.6 mph N/A   Clear